Location: Sternwarte Stuttgart
(48.7824°N, 9.1965°E)
Time: 12:46:24
(UTC+00:00)

ISS - Pass Details

Date: 25 April 2025
Orbit: 416 x 420 km, 51.6° (Epoch: 15 May)

Event Time Altitude Azimuth Distance (km) Brightness Sun altitude
Exits shadow 03:17:47 13° 246° (WSW) 1,335 -1.9 -9.0°
Maximum altitude 03:20:45 86° 162° (SSE) 423 -3.8 -8.6°
Drops below altitude 10° 03:24:07 10° 70° (ENE) 1,499 0.7 -8.1°
Sets 03:26:13 0° 70° (ENE) 2,365 2.2 -7.8°
